[[{"header":{"parameterUnit":"m.s-1","parameterCategory":1,"la1":30.2991,"la2":30.254,"lo1":-89.0895,"lo2":-89.0444,"dy":0.0017,"dx":0.0017,"nx":28,"ny":28,"refTime":"2023-08-06T21:00:00:Z","depth":0,"parameterNumber":2,"parameterNumberName":"U-component_of_WINDS"},"data":[0,0,0,0,0,0,0,0,0,0,0,0,0,0,0,0,0,0,0,0,0,0,0,0,0,0,0,0,0,0,0,0,0,0,0,0,0,0,0,0,0,0,0,0,0,0,0,0,0,0,0,0,0,0,0,0,0,0,6.1433,6.1434,0,6.153,6.1531,6.1532,6.1417,6.1413,6.1408,6.1404,6.1504,6.151,6.1517,0,0,0,0,0,0,0,0,0,0,0,0,0,6.1144,6.115,6.1432,6.1434,6.1435,6.153,6.1531,6.1533,6.1418,6.1412,6.1407,6.1402,6.1502,6.151,6.1518,0,0,0,0,0,0,0,0,0,0,0,0,0,6.1258,6.1152,6.1432,6.1389,6.1386,6.153,6.1531,6.1533,6.1419,6.1412,6.1406,6.14,6.1499,6.1509,6.1519,6.1709,0,0,6.1549,6.1553,0,0,0,0,0,0,0,0,6.1252,6.1269,6.1394,6.1392,6.1389,6.1455,6.1466,6.1592,6.142,6.1406,6.1404,6.1397,6.1493,6.1503,6.1535,6.1714,6.1718,6.155,6.1556,6.156,6.1563,0,0,0,0,0,0,0,6.1244,6.1264,6.1471,6.1396,6.1393,6.1364,6.1373,6.1489,6.1485,6.1407,6.1399,6.1412,6.149,6.1526,6.1537,6.172,6.155,6.1559,6.1565,6.1569,6.2055,6.2062,0,0,0,0,0,0,6.1242,6.1258,6.1468,6.1474,6.1303,6.1374,6.1385,6.144,6.1483,6.1483,6.1418,6.1406,6.1512,6.1525,6.154,6.1762,6.156,6.157,6.1575,6.2049,6.2057,6.2065,0,0,0,0,0,0,6.1236,6.1261,6.1464,6.1364,6.1388,6.1386,6.145,6.1446,6.1481,6.1491,6.1489,6.1455,6.1507,6.1526,6.1667,6.1764,6.1574,6.1583,6.204,6.2051,6.2061,6.2212,0,0,0,0,0,0,6.1228,6.126,6.1333,6.1367,6.1393,6.1591,6.1456,6.1452,6.1499,6.1485,6.1526,6.1526,6.1504,6.1653,6.1677,6.1775,6.1591,6.2032,6.2045,6.2057,6.2198,6.2226,6.225,0,0,0,0,0,6.1218,6.1372,6.1337,6.1363,6.1485,6.1597,6.1612,6.1583,6.1507,6.158,6.1586,6.1525,6.1751,6.1668,6.1695,6.1797,6.2025,6.2041,6.2056,6.2186,6.222,6.2249,0,0,0,0,0,0,6.1351,6.1376,6.1337,6.1507,6.1551,6.1577,6.1668,6.1621,6.1687,6.1671,6.1633,6.1643,6.1792,6.1809,6.1717,6.1981,6.1875,6.1897,6.1965,6.1997,6.2023,6.2014,6.1599,0,0,0,0,0,6.14,6.1489,6.1506,6.1655,6.1678,6.167,6.1718,6.1692,6.1735,6.1752,6.1768,6.1813,6.1892,6.1946,6.2021,6.2201,6.2206,6.2284,6.231,6.2331,6.2349,6.2441,6.2475,6.2116,6.2116,6.2115,0,0,6.1502,6.1527,6.1586,6.1682,6.1712,6.1804,6.1686,6.1789,6.1856,6.1768,6.1901,6.1915,6.1961,6.2121,6.2193,6.214,6.245,6.2351,6.2368,6.2374,6.2461,6.2495,6.2525,6.2126,6.2124,6.2123,0,0,6.1734,6.1764,6.1888,6.1921,6.1968,6.1961,6.1992,6.2025,6.203,6.2164,6.2098,6.2178,6.2318,6.2352,6.2388,6.2632,6.2577,6.2658,6.2792,6.2883,6.2911,6.2936,6.3019,6.305,6.2676,6.2677,6.2677,0,6.1855,6.1991,6.1958,6.2065,6.2108,6.2032,6.2157,6.2191,6.226,6.2291,6.2231,6.2403,6.2429,6.2594,6.2654,6.2687,6.2718,6.2651,6.291,6.2934,6.2957,6.3036,6.3067,6.2686,6.2685,6.2684,6.2683,0,6.2135,6.2231,6.2326,6.2394,6.2448,6.2563,6.2547,6.2605,6.2575,6.2574,6.2709,6.2738,6.2815,6.2853,6.2825,6.3014,6.2979,6.2916,6.2807,6.3001,6.3074,6.3104,6.2699,6.2696,6.2693,6.2691,0,0,6.2453,6.25,6.2535,6.2563,6.261,6.2682,6.2794,6.2869,6.2918,6.2969,6.3059,6.3179,6.3119,6.316,6.3135,6.3215,6.3402,6.3141,6.3141,6.3185,6.3607,6.3652,6.3688,6.3367,6.3373,6.3377,6.3602,0,6.2682,6.2874,6.2847,6.3032,6.3118,6.3047,6.3143,6.3181,6.3183,6.3256,6.3258,6.3341,6.3259,6.3282,6.3358,6.3363,6.3485,6.3347,6.3448,6.3452,6.3435,6.3727,6.3776,6.3986,6.3631,6.3636,6.364,0,6.2975,6.3035,6.3228,6.3258,6.3293,6.338,6.3445,6.3517,6.3558,6.3553,6.3598,6.3558,6.3668,6.356,6.3708,6.3615,6.3655,6.3663,6.3671,6.3676,6.3555,6.3737,6.4054,6.4084,6.3685,6.3681,6.3678,0,6.3183,6.3312,6.3443,6.347,6.351,6.3572,6.3591,6.3626,6.3672,6.3729,6.3758,6.3828,6.3866,6.392,6.3899,6.3823,6.4051,6.3942,6.4048,6.4048,6.4096,6.4093,6.442,6.4129,6.4128,6.4128,6.4127,0,6.344,6.356,6.3536,6.3616,6.3748,6.3715,6.3846,6.3857,6.3888,6.3967,6.3912,6.3988,6.3957,6.4031,6.4016,6.4138,6.4157,6.4155,6.4148,6.4158,6.4158,6.4181,6.4164,6.4136,6.4134,6.4133,6.4131,0,6.3692,6.3682,6.3819,6.3845,6.3854,6.3949,6.3971,6.4045,6.4043,6.4144,6.4166,6.4162,6.4246,6.4231,6.4324,6.4313,6.4466,6.4444,6.4452,6.4445,6.455,6.4539,6.4901,6.4945,6.4629,6.4632,6.4635,0,6.3855,6.3945,6.398,6.403,6.4053,6.4134,6.418,6.4152,6.4202,6.4254,6.4322,6.4401,6.4461,6.4598,6.4603,6.4673,6.4649,6.4771,6.4659,6.4664,6.4646,6.464,6.4647,6.4792,6.4796,6.4799,6.4801,0,6.4144,6.4134,6.4203,6.427,6.4327,6.4379,6.4425,6.4468,6.4444,6.4503,6.4587,6.4635,6.4728,6.4806,6.4871,6.4889,6.4841,6.4837,6.4864,6.4873,6.4872,6.487,6.4508,6.4828,6.4825,6.4823,6.4822,6.4821,6.4354,6.443,6.4465,6.4543,6.4575,6.4619,6.4689,6.4695,6.4764,6.4838,6.4817,6.4912,6.4949,6.503,6.5056,6.5129,6.5083,6.5124,6.5134,6.5144,6.5154,6.4864,6.5141,6.5141,6.514,6.5139,6.5139,0,6.4637,6.4656,6.4728,6.4793,6.4854,6.4805,6.4852,6.4906,6.499,6.5029,6.5089,6.5185,6.5259,6.527,6.534,6.5396,6.5375,6.5415,6.5408,6.5412,6.5193,6.516,6.543,6.543,6.543,6.543,6.543,6.543,6.4791,6.4914,6.4908,6.5046,6.5064,6.5157,6.5188,6.5227,6.5257,6.5366,6.5427,6.5434,6.546,6.5531,6.5596,6.5597,6.5624,6.5672,6.5664,6.5458,6.5429,6.5401,6.5369,6.5679,6.5679,6.5876,6.5878,6.588]},{"header":{"parameterUnit":"m.s-1","parameterCategory":1,"la1":30.2991,"la2":30.254,"lo1":-89.0895,"lo2":-89.0444,"dy":0.0017,"dx":0.0017,"nx":28,"ny":28,"refTime":"2023-08-06T21:00:00:Z","depth":0,"parameterNumber":3,"parameterNumberName":"V-component_of_WINDS"},"data":[0,0,0,0,0,0,0,0,0,0,0,0,0,0,0,0,0,0,0,0,0,0,0,0,0,0,0,0,0,0,0,0,0,0,0,0,0,0,0,0,0,0,0,0,0,0,0,0,0,0,0,0,0,0,0,0,0,0,3.4393,3.4395,0,3.4535,3.4537,3.4539,3.4547,3.4545,3.4543,3.4542,3.4684,3.4689,3.4694,0,0,0,0,0,0,0,0,0,0,0,0,0,3.4124,3.4129,3.4393,3.4395,3.4397,3.4535,3.4537,3.4539,3.4547,3.4545,3.4543,3.4541,3.4682,3.4688,3.4695,0,0,0,0,0,0,0,0,0,0,0,0,0,3.4251,3.413,3.4393,3.4417,3.4421,3.4535,3.4537,3.4539,3.4547,3.4545,3.4542,3.454,3.468,3.4688,3.4696,3.4793,0,0,3.472,3.4723,0,0,0,0,0,0,0,0,3.4244,3.4261,3.4412,3.4416,3.442,3.4521,3.4494,3.4624,3.4548,3.4499,3.4542,3.4539,3.4631,3.4643,3.4675,3.48,3.4806,3.4721,3.4725,3.4729,3.4731,0,0,0,0,0,0,0,3.4235,3.4255,3.4449,3.4414,3.4419,3.442,3.4435,3.4519,3.4577,3.4503,3.4504,3.4521,3.4633,3.4667,3.4678,3.4808,3.472,3.4728,3.4732,3.4736,3.5018,3.5021,0,0,0,0,0,0,3.4222,3.4247,3.4445,3.4454,3.4324,3.4427,3.4444,3.4491,3.4576,3.4587,3.4523,3.4521,3.4655,3.4669,3.4683,3.4802,3.4729,3.4736,3.4741,3.5015,3.5019,3.5022,0,0,0,0,0,0,3.4216,3.4239,3.4439,3.4351,3.4376,3.4434,3.4487,3.4495,3.4529,3.4591,3.4601,3.4548,3.4654,3.4672,3.4766,3.4807,3.474,3.4747,3.5012,3.5016,3.502,3.5041,0,0,0,0,0,0,3.4208,3.4237,3.4276,3.4352,3.4381,3.4521,3.4489,3.45,3.4543,3.4542,3.4617,3.4627,3.4653,3.4754,3.4774,3.4817,3.4753,3.5009,3.5014,3.5019,3.5037,3.5046,3.5053,0,0,0,0,0,3.4199,3.4277,3.4278,3.4302,3.4431,3.4523,3.454,3.4569,3.4547,3.4586,3.4625,3.4625,3.48,3.4763,3.4786,3.4832,3.5006,3.5012,3.5018,3.5034,3.5044,3.5053,0,0,0,0,0,0,3.4204,3.4287,3.429,3.4395,3.4452,3.4524,3.4574,3.4579,3.4643,3.4639,3.4672,3.4689,3.4781,3.4816,3.4774,3.493,3.49,3.4911,3.4904,3.4914,3.4922,3.4912,3.476,0,0,0,0,0,3.4218,3.4287,3.4355,3.444,3.4469,3.4517,3.4558,3.4575,3.4635,3.4659,3.4706,3.4763,3.483,3.4874,3.494,3.5042,3.5057,3.5085,3.5092,3.5099,3.5108,3.5162,3.5175,3.5042,3.5042,3.5042,0,0,3.4246,3.43,3.4341,3.4443,3.4489,3.4558,3.4537,3.4611,3.4662,3.467,3.4761,3.4797,3.4863,3.496,3.5006,3.4992,3.5148,3.5107,3.5111,3.5117,3.517,3.5182,3.5193,3.5046,3.5045,3.5045,0,0,3.4333,3.4381,3.4457,3.4504,3.4575,3.4605,3.4623,3.4695,3.4719,3.4811,3.4818,3.4878,3.4994,3.504,3.5079,3.5181,3.5182,3.5201,3.5242,3.5295,3.5306,3.5315,3.535,3.5363,3.521,3.521,3.521,0,3.4359,3.4465,3.4496,3.457,3.4613,3.4624,3.47,3.4743,3.4831,3.486,3.4844,3.4989,3.5034,3.5142,3.5166,3.5198,3.5218,3.5193,3.5302,3.5312,3.5321,3.5355,3.5368,3.5212,3.5212,3.5211,3.5211,0,3.4493,3.4566,3.4619,3.4704,3.4753,3.4828,3.4868,3.4914,3.4926,3.4958,3.505,3.5104,3.518,3.5207,3.522,3.5316,3.5306,3.5295,3.5266,3.5335,3.5367,3.538,3.5214,3.5214,3.5213,3.5213,0,0,3.4589,3.4689,3.4708,3.4745,3.4823,3.4879,3.4953,3.5028,3.5066,3.5126,3.5187,3.5284,3.5275,3.5319,3.5337,3.5383,3.5458,3.5367,3.5369,3.5381,3.5565,3.5572,3.5587,3.5459,3.5462,3.5464,3.5559,0,3.4684,3.4818,3.4846,3.496,3.5027,3.5037,3.5101,3.5154,3.5185,3.5245,3.5278,3.5347,3.533,3.5356,3.5402,3.5439,3.5496,3.5433,3.5516,3.5518,3.5499,3.5604,3.5612,3.57,3.5572,3.5575,3.5576,0,3.4814,3.4876,3.4998,3.5064,3.5093,3.5151,3.5221,3.5278,3.5338,3.5357,3.5405,3.5417,3.5492,3.5459,3.5562,3.5518,3.5554,3.5577,3.5581,3.559,3.5551,3.5615,3.5729,3.5741,3.5597,3.5595,3.5593,0,3.487,3.4985,3.5072,3.5104,3.5184,3.5224,3.5259,3.5317,3.5359,3.542,3.5447,3.5515,3.5552,3.5604,3.5634,3.5607,3.5734,3.5703,3.575,3.575,3.5777,3.5775,3.5897,3.58,3.58,3.58,3.5799,0,3.4973,3.5046,3.5098,3.5152,3.5233,3.5264,3.5343,3.5378,3.5429,3.5487,3.55,3.5554,3.559,3.565,3.5673,3.5754,3.577,3.5787,3.5792,3.5786,3.5783,3.5809,3.5804,3.5803,3.5802,3.5802,3.5801,0,3.505,3.5088,3.5183,3.5251,3.527,3.5327,3.5384,3.5435,3.5466,3.554,3.5559,3.5607,3.5677,3.5711,3.5798,3.5814,3.5905,3.5907,3.5885,3.5887,3.5932,3.5927,3.6075,3.6095,3.5985,3.5986,3.5987,0,3.5113,3.517,3.5244,3.5285,3.5321,3.5386,3.543,3.5461,3.5505,3.5576,3.5619,3.5689,3.5748,3.5859,3.59,3.5966,3.5969,3.6016,3.5979,3.597,3.5969,3.5965,3.597,3.6023,3.6024,3.6025,3.6026,0,3.5221,3.5236,3.5299,3.5368,3.542,3.5475,3.553,3.5562,3.5602,3.5651,3.5723,3.5768,3.5856,3.5926,3.5995,3.6029,3.6033,3.6037,3.6051,3.6045,3.603,3.6038,3.5903,3.6033,3.6033,3.6032,3.6032,3.6031,3.5293,3.5343,3.5402,3.5471,3.5515,3.5566,3.5617,3.5653,3.5714,3.579,3.5804,3.588,3.5936,3.6029,3.6065,3.6123,3.6113,3.6134,3.6139,3.6144,3.6145,3.6021,3.6136,3.6136,3.6136,3.6136,3.6135,0,3.54,3.5438,3.5502,3.5577,3.5631,3.5631,3.5691,3.5735,3.5802,3.5855,3.5912,3.5993,3.606,3.6106,3.6174,3.6212,3.6215,3.6228,3.6226,3.6233,3.6152,3.6132,3.6224,3.6224,3.6224,3.6224,3.6224,3.6224,3.5462,3.5547,3.5569,3.5674,3.5712,3.5787,3.5821,3.5867,3.5908,3.5999,3.6055,3.6085,3.6134,3.6205,3.6266,3.6277,3.6301,3.6314,3.6325,3.6248,3.6239,3.623,3.6212,3.6319,3.6319,3.6402,3.6403,3.6403]}]]